Time,TemperatureF,DewpointF,PressureIn,WindDirection,WindDirectionDegrees,WindSpeedMPH,WindSpeedGustMPH,Humidity,HourlyPrecipIn,Conditions,Clouds,dailyrainin,SoftwareType,DateUTC
2014-02-24 00:03:00,9.7,-19.9,29.44,WSW,251,8.7,11.0,24,0.00,,---,0.00,VWS V15.00,2014-02-24 06:03:00,
2014-02-24 00:08:00,9.7,-19.9,29.44,WSW,241,7.6,11.0,24,0.00,,---,0.00,VWS V15.00,2014-02-24 06:08:00,
2014-02-24 00:13:00,9.9,-19.7,29.44,West,260,5.4,10.5,24,0.00,,---,0.00,VWS V15.00,2014-02-24 06:13:00,
2014-02-24 00:18:00,9.9,-19.7,29.44,West,273,5.4,11.0,24,0.00,,---,0.00,VWS V15.00,2014-02-24 06:18:00,
2014-02-24 00:23:00,9.7,-19.9,29.44,WNW,284,5.8,11.0,24,0.00,,---,0.00,VWS V15.00,2014-02-24 06:23:00,
2014-02-24 00:28:00,10.0,-19.5,29.44,West,262,5.8,11.0,24,0.00,,---,0.00,VWS V15.00,2014-02-24 06:28:00,
2014-02-24 00:33:00,9.9,-19.7,29.44,SW,236,8.7,10.5,24,0.00,,---,0.00,VWS V15.00,2014-02-24 06:33:00,
2014-02-24 00:38:00,9.7,-19.9,29.44,West,270,7.6,10.5,24,0.00,,---,0.00,VWS V15.00,2014-02-24 06:38:00,
2014-02-24 00:43:00,9.7,-19.9,29.44,WSW,249,7.6,9.6,24,0.00,,---,0.00,VWS V15.00,2014-02-24 06:43:00,
2014-02-24 00:48:00,10.0,-19.5,29.44,WNW,285,8.3,10.5,24,0.00,,---,0.00,VWS V15.00,2014-02-24 06:48:00,
2014-02-24 00:53:00,9.7,-19.9,29.44,West,261,7.6,9.6,24,0.00,,---,0.00,VWS V15.00,2014-02-24 06:53:00,
2014-02-24 00:58:00,9.3,-20.2,29.44,WNW,286,7.6,9.6,24,0.00,,---,0.00,VWS V15.00,2014-02-24 06:58:00,
2014-02-24 01:03:00,9.1,-20.3,29.44,WNW,288,6.3,8.3,24,0.00,,---,0.00,VWS V15.00,2014-02-24 07:03:00,
2014-02-24 01:08:00,8.8,-20.6,29.44,West,280,4.9,8.3,24,0.00,,---,0.00,VWS V15.00,2014-02-24 07:08:00,
2014-02-24 01:13:00,8.8,-20.6,29.44,WNW,294,5.8,6.3,24,0.00,,---,0.00,VWS V15.00,2014-02-24 07:13:00,
2014-02-24 01:18:00,8.6,-20.8,29.44,WSW,242,6.3,6.7,24,0.00,,---,0.00,VWS V15.00,2014-02-24 07:18:00,
2014-02-24 01:23:00,9.1,-20.3,29.44,West,274,7.6,8.1,24,0.00,,---,0.00,VWS V15.00,2014-02-24 07:23:00,
2014-02-24 01:28:00,9.3,-20.2,29.44,West,266,5.8,8.3,24,0.00,,---,0.00,VWS V15.00,2014-02-24 07:28:00,
2014-02-24 01:33:00,9.1,-20.3,29.44,WSW,257,8.3,8.3,24,0.00,,---,0.00,VWS V15.00,2014-02-24 07:33:00,
2014-02-24 01:38:00,9.3,-20.2,29.44,West,266,6.3,8.7,24,0.00,,---,0.00,VWS V15.00,2014-02-24 07:38:00,
2014-02-24 01:43:00,9.1,-20.3,29.44,WNW,287,6.3,8.1,24,0.00,,---,0.00,VWS V15.00,2014-02-24 07:43:00,
2014-02-24 01:48:00,9.1,-20.3,29.44,West,271,3.6,8.1,24,0.00,,---,0.00,VWS V15.00,2014-02-24 07:48:00,
2014-02-24 01:53:00,9.3,-20.2,29.44,West,267,5.4,7.2,24,0.00,,---,0.00,VWS V15.00,2014-02-24 07:53:00,
2014-02-24 01:58:00,9.5,-20.0,29.44,WSW,248,3.1,7.6,24,0.00,,---,0.00,VWS V15.00,2014-02-24 07:58:00,
2014-02-24 02:03:00,9.7,-19.9,29.44,WSW,255,5.8,6.3,24,0.00,,---,0.00,VWS V15.00,2014-02-24 08:03:00,
2014-02-24 02:08:00,10.2,-19.4,29.44,SW,233,5.4,7.6,24,0.00,,---,0.00,VWS V15.00,2014-02-24 08:08:00,
2014-02-24 02:13:00,10.0,-19.5,29.44,WSW,253,6.7,7.6,24,0.00,,---,0.00,VWS V15.00,2014-02-24 08:13:00,
2014-02-24 02:18:00,9.5,-20.0,29.44,WSW,243,3.6,7.6,24,0.00,,---,0.00,VWS V15.00,2014-02-24 08:18:00,
2014-02-24 02:22:00,9.5,-20.0,29.44,WSW,251,4.9,7.6,24,0.00,,---,0.00,VWS V15.00,2014-02-24 08:22:00,
2014-02-24 02:27:00,9.3,-20.2,29.44,WSW,248,5.4,7.6,24,0.00,,---,0.00,VWS V15.00,2014-02-24 08:27:00,
2014-02-24 02:32:00,9.1,-20.3,29.44,WSW,247,3.6,6.3,24,0.00,,---,0.00,VWS V15.00,2014-02-24 08:32:00,
2014-02-24 02:37:00,9.3,-20.2,29.44,WSW,245,6.3,8.3,24,0.00,,---,0.00,VWS V15.00,2014-02-24 08:37:00,
2014-02-24 02:42:00,8.8,-20.6,29.44,West,267,8.1,9.6,24,0.00,,---,0.00,VWS V15.00,2014-02-24 08:42:00,
2014-02-24 02:47:00,8.8,-20.6,29.44,West,279,3.1,9.6,24,0.00,,---,0.00,VWS V15.00,2014-02-24 08:47:00,
2014-02-24 02:52:00,8.8,-20.6,29.44,WSW,240,5.8,7.2,24,0.00,,---,0.00,VWS V15.00,2014-02-24 08:52:00,
2014-02-24 02:57:00,8.8,-20.6,29.44,WSW,252,5.8,8.1,24,0.00,,---,0.00,VWS V15.00,2014-02-24 08:57:00,
2014-02-24 03:02:00,8.6,-20.8,29.44,WSW,247,5.8,6.3,24,0.00,,---,0.00,VWS V15.00,2014-02-24 09:02:00,
2014-02-24 03:07:00,8.4,-20.9,29.44,WSW,258,5.8,6.3,24,0.00,,---,0.00,VWS V15.00,2014-02-24 09:07:00,
2014-02-24 03:12:00,8.4,-20.9,29.44,WSW,241,4.0,6.3,24,0.00,,---,0.00,VWS V15.00,2014-02-24 09:12:00,
2014-02-24 03:17:00,8.1,-21.2,29.44,WSW,255,3.1,7.2,24,0.00,,---,0.00,VWS V15.00,2014-02-24 09:17:00,
2014-02-24 03:22:00,8.4,-20.9,29.44,SW,225,4.0,8.7,24,0.00,,---,0.00,VWS V15.00,2014-02-24 09:22:00,
2014-02-24 03:27:00,8.1,-21.2,29.44,WSW,245,7.2,8.7,24,0.00,,---,0.00,VWS V15.00,2014-02-24 09:27:00,
2014-02-24 03:32:00,8.1,-21.2,29.44,WSW,249,5.4,8.1,24,0.00,,---,0.00,VWS V15.00,2014-02-24 09:32:00,
2014-02-24 03:37:00,8.1,-21.2,29.44,WSW,253,6.3,8.1,24,0.00,,---,0.00,VWS V15.00,2014-02-24 09:37:00,
2014-02-24 03:42:00,8.2,-21.1,29.44,SW,232,4.9,6.3,24,0.00,,---,0.00,VWS V15.00,2014-02-24 09:42:00,
2014-02-24 03:47:00,8.6,-20.8,29.44,WSW,258,5.4,8.3,24,0.00,,---,0.00,VWS V15.00,2014-02-24 09:47:00,
2014-02-24 03:52:00,8.4,-20.9,29.44,West,263,4.0,8.1,24,0.00,,---,0.00,VWS V15.00,2014-02-24 09:52:00,
2014-02-24 03:57:00,7.9,-21.4,29.44,WSW,250,3.6,8.1,24,0.00,,---,0.00,VWS V15.00,2014-02-24 09:57:00,
2014-02-24 04:02:00,8.1,-21.2,29.44,West,272,5.4,7.6,24,0.00,,---,0.00,VWS V15.00,2014-02-24 10:02:00,
2014-02-24 04:07:00,7.9,-21.4,29.44,West,262,4.9,7.6,24,0.00,,---,0.00,VWS V15.00,2014-02-24 10:07:00,
2014-02-24 04:12:00,7.5,-21.7,29.44,WSW,255,5.4,8.1,24,0.00,,---,0.00,VWS V15.00,2014-02-24 10:12:00,
2014-02-24 04:17:00,7.2,-22.0,29.44,WSW,243,4.0,8.1,24,0.00,,---,0.00,VWS V15.00,2014-02-24 10:17:00,
2014-02-24 04:22:00,7.9,-21.4,29.44,SW,233,4.0,6.3,24,0.00,,---,0.00,VWS V15.00,2014-02-24 10:22:00,
2014-02-24 04:27:00,7.9,-21.4,29.44,WSW,254,4.9,9.6,24,0.00,,---,0.00,VWS V15.00,2014-02-24 10:27:00,
2014-02-24 04:32:00,7.5,-21.7,29.44,WSW,243,6.3,8.7,24,0.00,,---,0.00,VWS V15.00,2014-02-24 10:32:00,
2014-02-24 04:37:00,7.9,-21.4,29.44,WSW,258,5.8,8.7,24,0.00,,---,0.00,VWS V15.00,2014-02-24 10:37:00,
2014-02-24 04:42:00,7.7,-21.6,29.44,WSW,248,3.6,6.3,24,0.00,,---,0.00,VWS V15.00,2014-02-24 10:42:00,
2014-02-24 04:47:00,7.9,-21.4,29.44,WSW,241,5.8,8.7,24,0.00,,---,0.00,VWS V15.00,2014-02-24 10:47:00,
2014-02-24 04:52:00,7.5,-21.7,29.44,West,271,4.0,8.1,24,0.00,,---,0.00,VWS V15.00,2014-02-24 10:52:00,
2014-02-24 04:57:00,7.9,-21.4,29.44,West,265,3.1,8.1,24,0.00,,---,0.00,VWS V15.00,2014-02-24 10:57:00,
2014-02-24 05:02:00,7.7,-21.6,29.44,West,265,5.8,6.3,24,0.00,,---,0.00,VWS V15.00,2014-02-24 11:02:00,
2014-02-24 05:07:00,7.7,-21.6,29.44,West,259,5.4,7.6,24,0.00,,---,0.00,VWS V15.00,2014-02-24 11:07:00,
2014-02-24 05:12:00,7.9,-21.4,29.44,WSW,241,7.6,7.6,24,0.00,,---,0.00,VWS V15.00,2014-02-24 11:12:00,
2014-02-24 05:17:00,8.4,-20.9,29.44,WSW,243,5.8,8.7,24,0.00,,---,0.00,VWS V15.00,2014-02-24 11:17:00,
2014-02-24 05:22:00,8.2,-21.1,29.44,West,275,5.8,8.1,24,0.00,,---,0.00,VWS V15.00,2014-02-24 11:22:00,
2014-02-24 05:27:00,8.1,-21.2,29.47,West,265,8.1,8.7,24,0.00,,---,0.00,VWS V15.00,2014-02-24 11:27:00,
2014-02-24 05:32:00,7.9,-21.4,29.47,West,265,5.8,8.3,24,0.00,,---,0.00,VWS V15.00,2014-02-24 11:32:00,
2014-02-24 05:37:00,8.1,-21.2,29.47,WNW,287,5.8,8.3,24,0.00,,---,0.00,VWS V15.00,2014-02-24 11:37:00,
2014-02-24 05:42:00,8.1,-21.2,29.47,West,271,3.1,8.1,24,0.00,,---,0.00,VWS V15.00,2014-02-24 11:42:00,
2014-02-24 05:47:00,8.2,-21.1,29.47,West,259,3.6,10.5,24,0.00,,---,0.00,VWS V15.00,2014-02-24 11:47:00,
2014-02-24 05:52:00,8.1,-21.2,29.47,West,268,6.3,10.1,24,0.00,,---,0.00,VWS V15.00,2014-02-24 11:52:00,
2014-02-24 05:57:00,7.7,-21.6,29.47,West,268,6.3,10.1,24,0.00,,---,0.00,VWS V15.00,2014-02-24 11:57:00,
2014-02-24 06:02:00,7.7,-21.6,29.47,WSW,256,8.1,8.1,24,0.00,,---,0.00,VWS V15.00,2014-02-24 12:02:00,
2014-02-24 06:07:00,7.5,-21.7,29.47,West,273,4.0,8.7,24,0.00,,---,0.00,VWS V15.00,2014-02-24 12:07:00,
2014-02-24 06:12:00,7.7,-21.6,29.47,WSW,250,5.8,7.6,24,0.00,,---,0.00,VWS V15.00,2014-02-24 12:12:00,
2014-02-24 06:17:00,7.3,-21.9,29.47,WSW,256,8.7,9.6,24,0.00,,---,0.00,VWS V15.00,2014-02-24 12:17:00,
2014-02-24 06:22:00,7.5,-21.7,29.47,WSW,252,4.0,7.6,24,0.00,,---,0.00,VWS V15.00,2014-02-24 12:22:00,
2014-02-24 06:27:00,7.3,-21.9,29.44,WSW,247,6.3,8.1,24,0.00,,---,0.00,VWS V15.00,2014-02-24 12:27:00,
2014-02-24 06:32:00,7.0,-22.2,29.44,West,273,2.7,5.4,24,0.00,,---,0.00,VWS V15.00,2014-02-24 12:32:00,
2014-02-24 06:37:00,7.0,-22.2,29.44,WSW,245,2.7,6.3,24,0.00,,---,0.00,VWS V15.00,2014-02-24 12:37:00,
2014-02-24 06:42:00,7.0,-22.2,29.44,West,278,2.7,7.2,24,0.00,,---,0.00,VWS V15.00,2014-02-24 12:42:00,
2014-02-24 06:47:00,6.8,-22.3,29.44,West,265,3.6,7.2,24,0.00,,---,0.00,VWS V15.00,2014-02-24 12:47:00,
2014-02-24 06:52:00,7.0,-22.2,29.44,West,261,3.6,8.3,24,0.00,,---,0.00,VWS V15.00,2014-02-24 12:52:00,
2014-02-24 06:57:00,7.3,-21.9,29.47,West,261,4.0,8.3,24,0.00,,---,0.00,VWS V15.00,2014-02-24 12:57:00,
2014-02-24 07:02:00,7.7,-21.6,29.47,WSW,248,4.0,8.7,24,0.00,,---,0.00,VWS V15.00,2014-02-24 13:02:00,
2014-02-24 07:07:00,7.9,-21.4,29.47,WSW,242,7.6,8.7,24,0.00,,---,0.00,VWS V15.00,2014-02-24 13:07:00,
2014-02-24 07:12:00,8.1,-21.2,29.47,WSW,250,8.3,8.3,24,0.00,,---,0.00,VWS V15.00,2014-02-24 13:12:00,
2014-02-24 07:17:00,8.1,-21.2,29.47,West,264,7.6,8.3,24,0.00,,---,0.00,VWS V15.00,2014-02-24 13:17:00,
2014-02-24 07:22:00,8.4,-20.9,29.47,WSW,251,5.8,8.7,24,0.00,,---,0.00,VWS V15.00,2014-02-24 13:22:00,
2014-02-24 07:27:00,8.8,-20.6,29.47,SW,233,4.0,8.7,24,0.00,,---,0.00,VWS V15.00,2014-02-24 13:27:00,
2014-02-24 07:32:00,9.5,-20.0,29.47,West,279,8.7,8.7,24,0.00,,---,0.00,VWS V15.00,2014-02-24 13:32:00,
2014-02-24 07:37:00,10.2,-19.4,29.47,West,269,3.6,8.7,24,0.00,,---,0.00,VWS V15.00,2014-02-24 13:37:00,
2014-02-24 07:42:00,10.9,-18.8,29.47,West,262,6.3,8.1,24,0.00,,---,0.00,VWS V15.00,2014-02-24 13:42:00,
2014-02-24 07:47:00,11.3,-18.5,29.47,WSW,253,6.3,8.3,24,0.00,,---,0.00,VWS V15.00,2014-02-24 13:47:00,
2014-02-24 07:52:00,11.8,-18.0,29.47,West,277,5.4,10.1,24,0.00,,---,0.00,VWS V15.00,2014-02-24 13:52:00,
2014-02-24 07:57:00,11.8,-18.0,29.47,WNW,283,5.4,10.1,24,0.00,,---,0.00,VWS V15.00,2014-02-24 13:57:00,
2014-02-24 08:02:00,12.0,-17.8,29.47,WNW,288,6.3,8.7,24,0.00,,---,0.00,VWS V15.00,2014-02-24 14:02:00,
2014-02-24 08:07:00,12.9,-17.1,29.47,WSW,240,8.7,10.1,24,0.00,,---,0.00,VWS V15.00,2014-02-24 14:07:00,
2014-02-24 08:12:00,13.5,-16.6,29.47,SW,230,6.3,7.6,24,0.00,,---,0.00,VWS V15.00,2014-02-24 14:12:00,
2014-02-24 08:17:00,13.6,-16.4,29.47,West,271,8.3,10.1,24,0.00,,---,0.00,VWS V15.00,2014-02-24 14:17:00,
2014-02-24 08:22:00,14.2,-16.0,29.47,WNW,290,6.3,10.1,24,0.00,,---,0.00,VWS V15.00,2014-02-24 14:22:00,
2014-02-24 08:27:00,14.9,-15.4,29.47,West,264,5.8,10.1,24,0.00,,---,0.00,VWS V15.00,2014-02-24 14:27:00,
2014-02-24 08:32:00,16.5,-14.8,29.47,West,275,5.8,8.7,23,0.00,,---,0.00,VWS V15.00,2014-02-24 14:32:00,
2014-02-24 08:37:00,16.2,-15.1,29.47,WSW,258,6.3,11.0,23,0.00,,---,0.00,VWS V15.00,2014-02-24 14:37:00,
2014-02-24 08:42:00,16.0,-15.3,29.47,WNW,292,5.4,8.7,23,0.00,,---,0.00,VWS V15.00,2014-02-24 14:42:00,
2014-02-24 08:47:00,15.3,-15.1,29.47,West,268,10.1,12.8,24,0.00,,---,0.00,VWS V15.00,2014-02-24 14:47:00,
2014-02-24 08:52:00,15.8,-14.6,29.47,WNW,287,5.4,10.1,24,0.00,,---,0.00,VWS V15.00,2014-02-24 14:52:00,
2014-02-24 08:57:00,16.0,-15.3,29.50,West,280,4.9,10.5,23,0.00,,---,0.00,VWS V15.00,2014-02-24 14:57:00,
2014-02-24 09:02:00,17.4,-14.0,29.50,WNW,294,5.8,10.5,23,0.00,,---,0.00,VWS V15.00,2014-02-24 15:02:00,
2014-02-24 09:07:00,18.1,-13.4,29.50,West,276,5.4,10.5,23,0.00,,---,0.00,VWS V15.00,2014-02-24 15:07:00,
2014-02-24 09:12:00,18.7,-13.0,29.50,NW,306,10.1,10.5,23,0.00,,---,0.00,VWS V15.00,2014-02-24 15:12:00,
2014-02-24 09:16:00,18.0,-13.6,29.50,WNW,283,5.8,11.0,23,0.00,,---,0.00,VWS V15.00,2014-02-24 15:16:00,
2014-02-24 09:21:00,17.1,-14.3,29.50,WNW,288,11.0,11.0,23,0.00,,---,0.00,VWS V15.00,2014-02-24 15:21:00,
2014-02-24 09:26:00,19.6,-13.1,29.50,NNW,338,10.1,11.0,22,0.00,,---,0.00,VWS V15.00,2014-02-24 15:26:00,
2014-02-24 09:31:00,19.2,-12.5,29.50,NW,305,9.2,9.2,23,0.00,,---,0.00,VWS V15.00,2014-02-24 15:31:00,
2014-02-24 09:36:00,18.5,-13.1,29.50,NNW,332,7.6,10.1,23,0.00,,---,0.00,VWS V15.00,2014-02-24 15:36:00,
2014-02-24 09:41:00,17.8,-13.7,29.50,NW,318,6.3,8.7,23,0.00,,---,0.00,VWS V15.00,2014-02-24 15:41:00,
2014-02-24 09:46:00,17.8,-13.7,29.50,NNW,331,7.6,10.1,23,0.00,,---,0.00,VWS V15.00,2014-02-24 15:46:00,
2014-02-24 09:51:00,17.1,-14.3,29.50,NW,305,7.6,8.7,23,0.00,,---,0.00,VWS V15.00,2014-02-24 15:51:00,
2014-02-24 09:56:00,18.9,-12.8,29.50,WNW,290,10.1,11.0,23,0.00,,---,0.00,VWS V15.00,2014-02-24 15:56:00,
2014-02-24 10:01:00,18.7,-13.0,29.50,WNW,300,3.6,8.3,23,0.00,,---,0.00,VWS V15.00,2014-02-24 16:01:00,
2014-02-24 10:06:00,18.7,-13.0,29.50,WNW,303,8.7,9.6,23,0.00,,---,0.00,VWS V15.00,2014-02-24 16:06:00,
2014-02-24 10:11:00,19.6,-13.1,29.50,WNW,292,6.3,9.2,22,0.00,,---,0.00,VWS V15.00,2014-02-24 16:11:00,
2014-02-24 10:16:00,21.9,-11.1,29.50,WSW,245,8.7,11.0,22,0.00,,---,0.00,VWS V15.00,2014-02-24 16:16:00,
2014-02-24 10:21:00,20.7,-12.2,29.50,WNW,294,8.1,11.0,22,0.00,,---,0.00,VWS V15.00,2014-02-24 16:21:00,
2014-02-24 10:26:00,21.2,-11.7,29.50,WNW,296,5.8,11.0,22,0.00,,---,0.00,VWS V15.00,2014-02-24 16:26:00,
2014-02-24 10:31:00,21.0,-11.9,29.50,WNW,285,8.7,10.5,22,0.00,,---,0.00,VWS V15.00,2014-02-24 16:31:00,
2014-02-24 10:36:00,21.0,-11.9,29.50,West,281,10.5,11.0,22,0.00,,---,0.00,VWS V15.00,2014-02-24 16:36:00,
2014-02-24 10:41:00,21.2,-11.7,29.50,NW,305,8.7,8.7,22,0.00,,---,0.00,VWS V15.00,2014-02-24 16:41:00,
2014-02-24 10:46:00,21.4,-11.5,29.50,WNW,294,6.3,10.5,22,0.00,,---,0.00,VWS V15.00,2014-02-24 16:46:00,
2014-02-24 10:51:00,20.8,-12.0,29.50,WNW,291,8.7,8.7,22,0.00,,---,0.00,VWS V15.00,2014-02-24 16:51:00,
2014-02-24 10:56:00,21.2,-11.7,29.50,NW,308,8.1,11.0,22,0.00,,---,0.00,VWS V15.00,2014-02-24 16:56:00,
2014-02-24 11:01:00,21.2,-11.7,29.50,West,260,4.0,8.1,22,0.00,,---,0.00,VWS V15.00,2014-02-24 17:01:00,
2014-02-24 11:06:00,20.5,-12.3,29.50,WNW,290,8.1,11.0,22,0.00,,---,0.00,VWS V15.00,2014-02-24 17:06:00,
2014-02-24 11:11:00,20.3,-12.5,29.50,WNW,285,8.3,8.7,22,0.00,,---,0.00,VWS V15.00,2014-02-24 17:11:00,
2014-02-24 11:16:00,20.3,-12.5,29.50,WNW,295,7.6,12.8,22,0.00,,---,0.00,VWS V15.00,2014-02-24 17:16:00,
2014-02-24 11:21:00,21.0,-11.9,29.50,WNW,301,7.6,10.5,22,0.00,,---,0.00,VWS V15.00,2014-02-24 17:21:00,
2014-02-24 11:26:00,20.7,-12.2,29.50,WNW,290,5.4,11.0,22,0.00,,---,0.00,VWS V15.00,2014-02-24 17:26:00,
2014-02-24 11:31:00,20.1,-12.6,29.50,WNW,288,4.0,8.3,22,0.00,,---,0.00,VWS V15.00,2014-02-24 17:31:00,
2014-02-24 11:36:00,19.9,-12.8,29.50,NW,305,8.1,10.5,22,0.00,,---,0.00,VWS V15.00,2014-02-24 17:36:00,
2014-02-24 11:41:00,20.8,-12.0,29.50,West,281,10.1,10.5,22,0.00,,---,0.00,VWS V15.00,2014-02-24 17:41:00,
2014-02-24 11:46:00,21.0,-11.9,29.50,West,273,13.2,15.4,22,0.00,,---,0.00,VWS V15.00,2014-02-24 17:46:00,
2014-02-24 11:51:00,20.8,-12.0,29.50,West,281,8.3,10.1,22,0.00,,---,0.00,VWS V15.00,2014-02-24 17:51:00,
2014-02-24 11:56:00,19.9,-12.8,29.50,SW,215,7.6,15.0,22,0.00,,---,0.00,VWS V15.00,2014-02-24 17:56:00,
2014-02-24 12:01:00,20.8,-12.0,29.50,SW,229,8.7,12.3,22,0.00,,---,0.00,VWS V15.00,2014-02-24 18:01:00,
2014-02-24 12:06:00,21.2,-11.7,29.50,WSW,253,12.8,12.8,22,0.00,,---,0.00,VWS V15.00,2014-02-24 18:06:00,
2014-02-24 12:11:00,20.3,-12.5,29.50,West,263,12.8,12.8,22,0.00,,---,0.00,VWS V15.00,2014-02-24 18:11:00,
2014-02-24 12:16:00,20.1,-12.6,29.50,SW,229,8.1,15.0,22,0.00,,---,0.00,VWS V15.00,2014-02-24 18:16:00,
2014-02-24 12:21:00,21.0,-11.9,29.50,West,271,14.5,14.5,22,0.00,,---,0.00,VWS V15.00,2014-02-24 18:21:00,
2014-02-24 12:26:00,20.8,-12.0,29.50,WNW,284,8.1,14.5,22,0.00,,---,0.00,VWS V15.00,2014-02-24 18:26:00,
2014-02-24 12:31:00,21.2,-11.7,29.50,WSW,257,6.3,12.8,22,0.00,,---,0.00,VWS V15.00,2014-02-24 18:31:00,
2014-02-24 12:36:00,21.2,-11.7,29.50,WSW,253,8.3,15.4,22,0.00,,---,0.00,VWS V15.00,2014-02-24 18:36:00,
2014-02-24 12:41:00,21.9,-11.1,29.50,WSW,241,11.9,15.4,22,0.00,,---,0.00,VWS V15.00,2014-02-24 18:41:00,
2014-02-24 12:46:00,21.6,-11.4,29.50,West,273,8.3,15.4,22,0.00,,---,0.00,VWS V15.00,2014-02-24 18:46:00,
2014-02-24 12:51:00,23.0,-10.2,29.50,WSW,252,10.5,10.5,22,0.00,,---,0.00,VWS V15.00,2014-02-24 18:51:00,
2014-02-24 12:56:00,22.8,-10.3,29.47,West,265,8.3,11.0,22,0.00,,---,0.00,VWS V15.00,2014-02-24 18:56:00,
2014-02-24 13:01:00,22.5,-10.6,29.47,WNW,292,14.5,14.5,22,0.00,,---,0.00,VWS V15.00,2014-02-24 19:01:00,
2014-02-24 13:06:00,22.8,-10.3,29.47,WSW,256,12.8,15.4,22,0.00,,---,0.00,VWS V15.00,2014-02-24 19:06:00,
2014-02-24 13:11:00,23.5,-9.7,29.47,WSW,251,5.8,12.3,22,0.00,,---,0.00,VWS V15.00,2014-02-24 19:11:00,
2014-02-24 13:16:00,25.9,-8.7,29.47,SW,225,7.6,14.5,21,0.00,,---,0.00,VWS V15.00,2014-02-24 19:16:00,
2014-02-24 13:21:00,25.5,-9.0,29.47,SW,233,8.3,15.0,21,0.00,,---,0.00,VWS V15.00,2014-02-24 19:21:00,
2014-02-24 13:26:00,24.4,-8.9,29.47,WSW,256,11.0,15.0,22,0.00,,---,0.00,VWS V15.00,2014-02-24 19:26:00,
2014-02-24 13:31:00,24.4,-8.9,29.47,WSW,249,9.6,11.9,22,0.00,,---,0.00,VWS V15.00,2014-02-24 19:31:00,
2014-02-24 13:36:00,26.1,-8.5,29.47,WSW,255,6.3,13.2,21,0.00,,---,0.00,VWS V15.00,2014-02-24 19:36:00,
2014-02-24 13:41:00,26.8,-7.9,29.47,West,266,9.6,10.1,21,0.00,,---,0.00,VWS V15.00,2014-02-24 19:41:00,
2014-02-24 13:46:00,25.7,-8.8,29.47,WSW,240,10.1,13.2,21,0.00,,---,0.00,VWS V15.00,2014-02-24 19:46:00,
2014-02-24 13:51:00,24.4,-8.9,29.47,SW,231,8.3,12.3,22,0.00,,---,0.00,VWS V15.00,2014-02-24 19:51:00,
2014-02-24 13:56:00,24.1,-9.2,29.47,SW,236,4.0,15.4,22,0.00,,---,0.00,VWS V15.00,2014-02-24 19:56:00,
2014-02-24 14:01:00,24.3,-9.1,29.47,SW,233,6.3,10.1,22,0.00,,---,0.00,VWS V15.00,2014-02-24 20:01:00,
2014-02-24 14:06:00,23.7,-9.6,29.47,WSW,241,9.6,16.8,22,0.00,,---,0.00,VWS V15.00,2014-02-24 20:06:00,
2014-02-24 14:11:00,22.5,-10.6,29.47,WSW,247,10.1,14.1,22,0.00,,---,0.00,VWS V15.00,2014-02-24 20:11:00,
2014-02-24 14:16:00,23.9,-9.4,29.47,WSW,248,12.8,14.1,22,0.00,,---,0.00,VWS V15.00,2014-02-24 20:16:00,
2014-02-24 14:21:00,25.2,-9.3,29.47,WSW,239,10.1,10.1,21,0.00,,---,0.00,VWS V15.00,2014-02-24 20:21:00,
2014-02-24 14:26:00,24.8,-8.6,29.47,SW,220,8.7,10.5,22,0.00,,---,0.00,VWS V15.00,2014-02-24 20:26:00,
2014-02-24 14:31:00,24.4,-8.9,29.47,West,271,10.5,10.5,22,0.00,,---,0.00,VWS V15.00,2014-02-24 20:31:00,
2014-02-24 14:36:00,23.9,-9.4,29.47,WSW,248,8.7,11.0,22,0.00,,---,0.00,VWS V15.00,2014-02-24 20:36:00,
2014-02-24 14:41:00,23.2,-10.0,29.47,SW,216,10.5,10.5,22,0.00,,---,0.00,VWS V15.00,2014-02-24 20:41:00,
2014-02-24 14:45:00,23.9,-9.4,29.47,WNW,284,10.5,13.2,22,0.00,,---,0.00,VWS V15.00,2014-02-24 20:45:00,
2014-02-24 14:50:00,24.3,-9.1,29.47,WSW,256,8.7,14.5,22,0.00,,---,0.00,VWS V15.00,2014-02-24 20:50:00,
2014-02-24 14:55:00,23.7,-9.6,29.47,SW,230,10.5,14.5,22,0.00,,---,0.00,VWS V15.00,2014-02-24 20:55:00,
2014-02-24 15:00:00,25.3,-9.1,29.47,WSW,249,9.2,10.1,21,0.00,,---,0.00,VWS V15.00,2014-02-24 21:00:00,
2014-02-24 15:05:00,24.8,-8.6,29.47,West,269,8.1,12.8,22,0.00,,---,0.00,VWS V15.00,2014-02-24 21:05:00,
2014-02-24 15:10:00,24.4,-8.9,29.47,SW,223,8.3,12.8,22,0.00,,---,0.00,VWS V15.00,2014-02-24 21:10:00,
2014-02-24 15:15:00,25.2,-9.3,29.47,WSW,258,9.6,12.8,21,0.00,,---,0.00,VWS V15.00,2014-02-24 21:15:00,
2014-02-24 15:20:00,24.4,-8.9,29.47,West,277,8.3,12.3,22,0.00,,---,0.00,VWS V15.00,2014-02-24 21:20:00,
2014-02-24 15:25:00,26.1,-8.5,29.44,WNW,287,5.4,12.3,21,0.00,,---,0.00,VWS V15.00,2014-02-24 21:25:00,
2014-02-24 15:30:00,24.8,-8.6,29.44,West,270,5.4,10.5,22,0.00,,---,0.00,VWS V15.00,2014-02-24 21:30:00,
2014-02-24 15:35:00,23.7,-9.6,29.44,SW,236,6.3,10.5,22,0.00,,---,0.00,VWS V15.00,2014-02-24 21:35:00,
2014-02-24 15:40:00,24.1,-9.2,29.44,West,259,10.1,10.1,22,0.00,,---,0.00,VWS V15.00,2014-02-24 21:40:00,
2014-02-24 15:45:00,22.5,-10.6,29.44,West,277,8.3,13.6,22,0.00,,---,0.00,VWS V15.00,2014-02-24 21:45:00,
2014-02-24 15:50:00,21.7,-11.2,29.44,SW,231,8.3,8.3,22,0.00,,---,0.00,VWS V15.00,2014-02-24 21:50:00,
2014-02-24 15:55:00,21.9,-11.1,29.44,SW,232,8.3,11.0,22,0.00,,---,0.00,VWS V15.00,2014-02-24 21:55:00,
2014-02-24 16:00:00,21.2,-11.7,29.44,West,260,4.9,8.1,22,0.00,,---,0.00,VWS V15.00,2014-02-24 22:00:00,
2014-02-24 16:05:00,20.7,-12.2,29.44,West,271,10.5,12.8,22,0.00,,---,0.00,VWS V15.00,2014-02-24 22:05:00,
2014-02-24 16:10:00,20.7,-12.2,29.44,West,262,6.3,6.3,22,0.00,,---,0.00,VWS V15.00,2014-02-24 22:10:00,
2014-02-24 16:15:00,20.5,-12.3,29.44,WSW,253,8.3,12.3,22,0.00,,---,0.00,VWS V15.00,2014-02-24 22:15:00,
2014-02-24 16:20:00,21.0,-11.9,29.44,West,265,6.3,7.6,22,0.00,,---,0.00,VWS V15.00,2014-02-24 22:20:00,
2014-02-24 16:25:00,20.5,-12.3,29.44,West,272,5.4,12.3,22,0.00,,---,0.00,VWS V15.00,2014-02-24 22:25:00,
2014-02-24 16:30:00,20.5,-12.3,29.44,WNW,283,5.4,8.1,22,0.00,,---,0.00,VWS V15.00,2014-02-24 22:30:00,
2014-02-24 16:35:00,20.3,-12.5,29.44,WSW,251,8.7,12.3,22,0.00,,---,0.00,VWS V15.00,2014-02-24 22:35:00,
2014-02-24 16:40:00,19.9,-12.8,29.44,WSW,253,4.9,8.1,22,0.00,,---,0.00,VWS V15.00,2014-02-24 22:40:00,
2014-02-24 16:45:00,19.8,-12.9,29.44,West,267,9.6,10.1,22,0.00,,---,0.00,VWS V15.00,2014-02-24 22:45:00,
2014-02-24 16:50:00,19.4,-12.3,29.44,West,280,10.5,11.0,23,0.00,,---,0.00,VWS V15.00,2014-02-24 22:50:00,
2014-02-24 16:55:00,19.2,-12.5,29.44,WNW,284,8.3,11.0,23,0.00,,---,0.00,VWS V15.00,2014-02-24 22:55:00,
2014-02-24 17:00:00,19.0,-12.6,29.44,SW,231,8.3,8.3,23,0.00,,---,0.00,VWS V15.00,2014-02-24 23:00:00,
2014-02-24 17:05:00,19.0,-12.6,29.44,West,264,5.8,11.0,23,0.00,,---,0.00,VWS V15.00,2014-02-24 23:05:00,
2014-02-24 17:10:00,18.7,-13.0,29.44,WSW,254,5.8,8.3,23,0.00,,---,0.00,VWS V15.00,2014-02-24 23:10:00,
2014-02-24 17:15:00,18.7,-13.0,29.44,West,259,6.3,11.0,23,0.00,,---,0.00,VWS V15.00,2014-02-24 23:15:00,
2014-02-24 17:20:00,18.3,-13.3,29.44,West,259,8.1,8.1,23,0.00,,---,0.00,VWS V15.00,2014-02-24 23:20:00,
2014-02-24 17:25:00,18.0,-13.6,29.44,West,260,8.3,10.5,23,0.00,,---,0.00,VWS V15.00,2014-02-24 23:25:00,
2014-02-24 17:30:00,17.4,-14.0,29.44,WSW,249,5.4,7.2,23,0.00,,---,0.00,VWS V15.00,2014-02-24 23:30:00,
2014-02-24 17:35:00,17.4,-14.0,29.44,WSW,247,8.1,10.1,23,0.00,,---,0.00,VWS V15.00,2014-02-24 23:35:00,
2014-02-24 17:40:00,16.9,-14.5,29.44,WSW,245,6.3,6.3,23,0.00,,---,0.00,VWS V15.00,2014-02-24 23:40:00,
2014-02-24 17:45:00,16.9,-14.5,29.44,WSW,246,4.0,10.1,23,0.00,,---,0.00,VWS V15.00,2014-02-24 23:45:00,
2014-02-24 17:50:00,16.7,-14.6,29.44,WSW,250,6.3,7.2,23,0.00,,---,0.00,VWS V15.00,2014-02-24 23:50:00,
2014-02-24 17:55:00,16.9,-14.5,29.44,WSW,248,5.8,8.7,23,0.00,,---,0.00,VWS V15.00,2014-02-24 23:55:00,
2014-02-24 18:00:00,16.9,-14.5,29.44,WSW,258,4.9,5.4,23,0.00,,---,0.00,VWS V15.00,2014-02-25 00:00:00,
2014-02-24 18:05:00,16.5,-14.8,29.44,WSW,251,8.7,8.7,23,0.00,,---,0.00,VWS V15.00,2014-02-25 00:05:00,
2014-02-24 18:10:00,16.2,-15.1,29.44,WSW,250,5.8,5.8,23,0.00,,---,0.00,VWS V15.00,2014-02-25 00:10:00,
2014-02-24 18:15:00,15.6,-14.7,29.44,West,259,0.0,6.7,24,0.00,,---,0.00,VWS V15.00,2014-02-25 00:15:00,
2014-02-24 18:20:00,15.3,-15.1,29.44,WSW,243,4.0,4.5,24,0.00,,---,0.00,VWS V15.00,2014-02-25 00:20:00,
2014-02-24 18:25:00,15.6,-14.7,29.44,WSW,246,4.0,5.4,24,0.00,,---,0.00,VWS V15.00,2014-02-25 00:25:00,
2014-02-24 18:30:00,15.8,-14.6,29.44,WSW,249,3.1,3.1,24,0.00,,---,0.00,VWS V15.00,2014-02-25 00:30:00,
2014-02-24 18:35:00,16.2,-15.1,29.44,WSW,243,6.3,7.2,23,0.00,,---,0.00,VWS V15.00,2014-02-25 00:35:00,
2014-02-24 18:40:00,16.3,-15.0,29.44,WSW,239,3.6,3.6,23,0.00,,---,0.00,VWS V15.00,2014-02-25 00:40:00,
2014-02-24 18:45:00,16.3,-15.0,29.44,WSW,255,5.4,8.1,23,0.00,,---,0.00,VWS V15.00,2014-02-25 00:45:00,
2014-02-24 18:50:00,16.3,-15.0,29.44,West,270,3.6,3.6,23,0.00,,---,0.00,VWS V15.00,2014-02-25 00:50:00,
2014-02-24 18:55:00,16.2,-15.1,29.44,West,266,8.1,8.3,23,0.00,,---,0.00,VWS V15.00,2014-02-25 00:55:00,
2014-02-24 19:00:00,16.0,-15.3,29.44,SW,232,3.6,3.6,23,0.00,,---,0.00,VWS V15.00,2014-02-25 01:00:00,
2014-02-24 19:05:00,16.0,-15.3,29.44,WSW,245,8.3,9.6,23,0.00,,---,0.00,VWS V15.00,2014-02-25 01:05:00,
2014-02-24 19:10:00,15.8,-14.6,29.44,West,277,5.8,5.8,24,0.00,,---,0.00,VWS V15.00,2014-02-25 01:10:00,
2014-02-24 19:15:00,15.3,-15.1,29.44,WSW,252,6.3,7.6,24,0.00,,---,0.00,VWS V15.00,2014-02-25 01:15:00,
2014-02-24 19:20:00,15.1,-15.2,29.44,West,265,3.6,7.6,24,0.00,,---,0.00,VWS V15.00,2014-02-25 01:20:00,
2014-02-24 19:25:00,14.9,-15.4,29.44,West,260,3.1,5.4,24,0.00,,---,0.00,VWS V15.00,2014-02-25 01:25:00,
2014-02-24 19:30:00,14.7,-15.5,29.44,West,275,4.0,4.0,24,0.00,,---,0.00,VWS V15.00,2014-02-25 01:30:00,
2014-02-24 19:35:00,14.4,-15.8,29.44,West,274,5.8,6.3,24,0.00,,---,0.00,VWS V15.00,2014-02-25 01:35:00,
2014-02-24 19:40:00,14.9,-15.4,29.44,WSW,258,6.3,8.1,24,0.00,,---,0.00,VWS V15.00,2014-02-25 01:40:00,
2014-02-24 19:45:00,15.1,-15.2,29.44,West,273,5.4,8.1,24,0.00,,---,0.00,VWS V15.00,2014-02-25 01:45:00,
2014-02-24 19:50:00,15.3,-15.1,29.44,West,267,3.6,8.3,24,0.00,,---,0.00,VWS V15.00,2014-02-25 01:50:00,
2014-02-24 19:55:00,15.6,-14.7,29.44,WSW,239,9.2,9.2,24,0.00,,---,0.00,VWS V15.00,2014-02-25 01:55:00,
2014-02-24 20:00:00,15.6,-14.7,29.44,SW,221,7.2,9.2,24,0.00,,---,0.00,VWS V15.00,2014-02-25 02:00:00,
2014-02-24 20:05:00,15.6,-14.7,29.44,WSW,251,3.6,7.6,24,0.00,,---,0.00,VWS V15.00,2014-02-25 02:05:00,
2014-02-24 20:10:00,15.4,-14.9,29.44,West,262,5.8,8.7,24,0.00,,---,0.00,VWS V15.00,2014-02-25 02:10:00,
2014-02-24 20:15:00,15.4,-14.9,29.44,WSW,253,5.8,8.1,24,0.00,,---,0.00,VWS V15.00,2014-02-25 02:15:00,
2014-02-24 20:20:00,15.4,-14.9,29.44,WNW,289,8.3,10.1,24,0.00,,---,0.00,VWS V15.00,2014-02-25 02:20:00,
2014-02-24 20:24:00,15.6,-14.7,29.41,WSW,257,5.8,8.3,24,0.00,,---,0.00,VWS V15.00,2014-02-25 02:24:00,
2014-02-24 20:29:00,15.8,-14.6,29.41,WSW,254,4.9,8.7,24,0.00,,---,0.00,VWS V15.00,2014-02-25 02:29:00,
2014-02-24 20:34:00,15.8,-14.6,29.41,WSW,250,5.8,8.3,24,0.00,,---,0.00,VWS V15.00,2014-02-25 02:34:00,
2014-02-24 20:39:00,15.8,-14.6,29.44,West,271,5.8,8.3,24,0.00,,---,0.00,VWS V15.00,2014-02-25 02:39:00,
2014-02-24 20:44:00,15.8,-14.6,29.44,West,278,4.9,8.3,24,0.00,,---,0.00,VWS V15.00,2014-02-25 02:44:00,
2014-02-24 20:49:00,15.4,-14.9,29.44,West,276,3.1,8.3,24,0.00,,---,0.00,VWS V15.00,2014-02-25 02:49:00,
2014-02-24 20:54:00,15.4,-14.9,29.44,WNW,284,4.9,7.6,24,0.00,,---,0.00,VWS V15.00,2014-02-25 02:54:00,
2014-02-24 20:59:00,15.4,-14.9,29.44,West,261,4.0,7.6,24,0.00,,---,0.00,VWS V15.00,2014-02-25 02:59:00,
2014-02-24 21:04:00,15.4,-14.9,29.44,West,276,4.0,8.1,24,0.00,,---,0.00,VWS V15.00,2014-02-25 03:04:00,
2014-02-24 21:09:00,15.6,-14.7,29.44,WSW,256,7.6,8.1,24,0.00,,---,0.00,VWS V15.00,2014-02-25 03:09:00,
2014-02-24 21:14:00,15.6,-14.7,29.44,WNW,283,5.8,8.3,24,0.00,,---,0.00,VWS V15.00,2014-02-25 03:14:00,
2014-02-24 21:19:00,15.6,-14.7,29.44,SW,219,3.6,8.3,24,0.00,,---,0.00,VWS V15.00,2014-02-25 03:19:00,
2014-02-24 21:24:00,15.8,-14.6,29.44,WSW,240,5.8,8.7,24,0.00,,---,0.00,VWS V15.00,2014-02-25 03:24:00,
2014-02-24 21:29:00,15.8,-14.6,29.44,West,278,5.4,8.7,24,0.00,,---,0.00,VWS V15.00,2014-02-25 03:29:00,
2014-02-24 21:34:00,15.6,-14.7,29.44,WSW,251,3.1,7.6,24,0.00,,---,0.00,VWS V15.00,2014-02-25 03:34:00,
2014-02-24 21:39:00,15.4,-14.9,29.44,West,274,5.4,7.6,24,0.00,,---,0.00,VWS V15.00,2014-02-25 03:39:00,
2014-02-24 21:44:00,15.4,-14.9,29.44,West,281,3.1,6.3,24,0.00,,---,0.00,VWS V15.00,2014-02-25 03:44:00,
2014-02-24 21:49:00,15.4,-14.9,29.44,WSW,251,5.8,8.7,24,0.00,,---,0.00,VWS V15.00,2014-02-25 03:49:00,
2014-02-24 21:54:00,15.6,-14.7,29.44,WSW,244,6.3,8.1,24,0.00,,---,0.00,VWS V15.00,2014-02-25 03:54:00,
2014-02-24 21:59:00,15.4,-14.9,29.44,West,262,0.0,8.1,24,0.00,,---,0.00,VWS V15.00,2014-02-25 03:59:00,
2014-02-24 22:04:00,15.4,-14.9,29.44,WSW,253,3.1,7.2,24,0.00,,---,0.00,VWS V15.00,2014-02-25 04:04:00,
2014-02-24 22:09:00,15.4,-14.9,29.44,WSW,252,5.4,7.6,24,0.00,,---,0.00,VWS V15.00,2014-02-25 04:09:00,
2014-02-24 22:14:00,15.8,-14.6,29.44,West,275,7.6,8.1,24,0.00,,---,0.00,VWS V15.00,2014-02-25 04:14:00,
2014-02-24 22:19:00,15.6,-14.7,29.44,West,272,4.0,8.1,24,0.00,,---,0.00,VWS V15.00,2014-02-25 04:19:00,
2014-02-24 22:24:00,15.6,-14.7,29.44,West,276,5.4,10.1,24,0.00,,---,0.00,VWS V15.00,2014-02-25 04:24:00,
2014-02-24 22:29:00,15.8,-14.6,29.44,West,268,4.0,10.1,24,0.00,,---,0.00,VWS V15.00,2014-02-25 04:29:00,
2014-02-24 22:34:00,15.8,-14.6,29.44,WSW,251,4.9,8.7,24,0.00,,---,0.00,VWS V15.00,2014-02-25 04:34:00,
2014-02-24 22:39:00,15.8,-14.6,29.44,West,274,4.9,11.0,24,0.00,,---,0.00,VWS V15.00,2014-02-25 04:39:00,
2014-02-24 22:44:00,15.8,-14.6,29.44,WSW,250,4.9,10.1,24,0.00,,---,0.00,VWS V15.00,2014-02-25 04:44:00,
2014-02-24 22:49:00,15.8,-14.6,29.44,West,276,5.4,10.1,24,0.00,,---,0.00,VWS V15.00,2014-02-25 04:49:00,
2014-02-24 22:54:00,15.6,-14.7,29.44,West,269,7.6,8.3,24,0.00,,---,0.00,VWS V15.00,2014-02-25 04:54:00,
2014-02-24 22:59:00,15.6,-14.7,29.44,West,274,5.4,8.7,24,0.00,,---,0.00,VWS V15.00,2014-02-25 04:59:00,
2014-02-24 23:01:00,15.8,-14.6,29.44,West,276,3.1,6.3,24,0.00,,---,0.00,VWS V15.00,2014-02-25 05:01:00,
2014-02-24 23:06:00,15.6,-14.7,29.44,WSW,245,4.5,8.3,24,0.00,,---,0.00,VWS V15.00,2014-02-25 05:06:00,
2014-02-24 23:11:00,15.8,-14.6,29.44,WNW,282,8.1,10.1,24,0.00,,---,0.00,VWS V15.00,2014-02-25 05:11:00,
2014-02-24 23:16:00,15.6,-14.7,29.44,WNW,291,7.6,10.1,24,0.00,,---,0.00,VWS V15.00,2014-02-25 05:16:00,
2014-02-24 23:21:00,15.4,-14.9,29.44,West,281,5.8,8.7,24,0.00,,---,0.00,VWS V15.00,2014-02-25 05:21:00,
2014-02-24 23:26:00,15.4,-14.9,29.44,WNW,284,7.6,13.2,24,0.00,,---,0.00,VWS V15.00,2014-02-25 05:26:00,
2014-02-24 23:31:00,15.4,-14.9,29.44,WNW,286,8.7,8.7,24,0.00,,---,0.00,VWS V15.00,2014-02-25 05:31:00,
2014-02-24 23:36:00,15.4,-14.9,29.44,WNW,285,8.7,8.7,24,0.00,,---,0.00,VWS V15.00,2014-02-25 05:36:00,
2014-02-24 23:41:00,15.3,-15.1,29.44,West,265,7.2,7.2,24,0.00,,---,0.00,VWS V15.00,2014-02-25 05:41:00,
2014-02-24 23:46:00,15.3,-15.1,29.44,WNW,284,5.8,10.1,24,0.00,,---,0.00,VWS V15.00,2014-02-25 05:46:00,
2014-02-24 23:51:00,15.3,-15.1,29.44,West,276,10.1,10.1,24,0.00,,---,0.00,VWS V15.00,2014-02-25 05:51:00,
2014-02-24 23:56:00,15.3,-15.1,29.44,WSW,245,6.3,10.5,24,0.00,,---,0.00,VWS V15.00,2014-02-25 05:56:00,